Volver al catálogo

FENGYUN 1C DEB

ActivoPO
NORAD 29890·DEBRIS·🇨🇳 China

Lanzado May 10, 1999 desde Taiyuan Satellite Launch Center

Loading…

Próximos Pases (próximas 24 horas)

TLE

ActualizadoSource: Space-Track

Época: Sep 14, 2026, 09:09 UTC

1 29890U 99025GL  26257.38161798  .00000682  00000-0  31698-3 0  9994
2 29890  99.4935  45.1793 0013381  27.2481 332.9394 14.24308590 13641

Sigue FENGYUN 1C DEB en tiempo real con AllMySat

Download on the App Store